This is the latest recevied weather packets stored in our database for station/object SQ9SMC-13. If no packets are shown the sender has not sent any weather packets the latest 10 day(s).
| Time | Temp. | Humidity | Pressure | Rain* | Wind** | Luminosity | Snow |
|---|---|---|---|---|---|---|---|
| 1777756803 | 6.67° C | 81% | 1022 hPa | 0 mm | - | 0 W/m² | - |
| 1777756505 | 7.22° C | 80% | 1021.9 hPa | 0 mm | - | 0 W/m² | - |
| 1777756202 | 6.67° C | 81% | 1021.8 hPa | 0 mm | - | 0 W/m² | - |
| 1777755904 | 7.22° C | 80% | 1022.1 hPa | 0 mm | - | 0 W/m² | - |
| 1777755603 | 7.22° C | 79% | 1022.1 hPa | 0 mm | - | 0 W/m² | - |
| 1777755303 | 7.78° C | 79% | 1022.1 hPa | 0 mm | - | 0 W/m² | - |
| 1777755003 | 7.78° C | 78% | 1022.3 hPa | 0 mm | - | 0 W/m² | - |
| 1777754702 | 7.78° C | 78% | 1022.1 hPa | 0 mm | - | 0 W/m² | - |
| 1777754404 | 7.78° C | 78% | 1022.2 hPa | 0 mm | - | 0 W/m² | - |
| 1777754102 | 7.78° C | 78% | 1022.3 hPa | 0 mm | - | 0 W/m² | - |
| 1777753805 | 7.78° C | 76% | 1022.3 hPa | 0 mm | - | 0 W/m² | - |
| 1777753502 | 8.33° C | 74% | 1022.4 hPa | 0 mm | - | 0 W/m² | - |
| 1777753203 | 8.89° C | 73% | 1022.5 hPa | 0 mm | - | 0 W/m² | - |
| 1777752905 | 8.89° C | 74% | 1022.3 hPa | 0 mm | - | 0 W/m² | - |
| 1777752604 | 8.89° C | 73% | 1022.3 hPa | 0 mm | - | 0 W/m² | - |
| 1777752302 | 9.44° C | 72% | 1022.2 hPa | 0 mm | - | 0 W/m² | - |
| 1777752005 | 9.44° C | 70% | 1022.2 hPa | 0 mm | - | 0 W/m² | - |
| 1777751704 | 10° C | 68% | 1022.3 hPa | 0 mm | - | 0 W/m² | - |
| 1777751403 | 10.56° C | 67% | 1022.2 hPa | 0 mm | - | 0 W/m² | - |
| 1777751104 | 11.11° C | 63% | 1022.3 hPa | 0 mm | - | 0 W/m² | - |
| 1777750803 | 11.67° C | 61% | 1022.3 hPa | 0 mm | - | 0 W/m² | - |
| 1777750503 | 12.78° C | 59% | 1022.3 hPa | 0 mm | - | 0 W/m² | - |
| 1777750202 | 13.33° C | 55% | 1022.2 hPa | 0 mm | - | 0 W/m² | - |
| 1777749903 | 13.89° C | 53% | 1022.2 hPa | 0 mm | - | 0 W/m² | - |
| 1777749603 | 13.89° C | 53% | 1022.4 hPa | 0 mm | - | 0 W/m² | - |
* Rain latest hour (hover to see other rain measurements)
** Current wind speed in m/s (hover to see current wind gust speed)